KK5DC Weather Reports


Display with metric or nautical units.
time (UTC)temp
F
wind
direction
speed
MPH
gust
MPH
rain 1hr
in
rain 24hr
in
rain mn
in
humidity
%
barometer
mb
20260506001522 81 132 0.0 2.0 0.00 0.00 0.00 77 1007.0
20260506001512 81 143 2.0 5.0 0.00 0.00 0.00 77 1006.3
20260506001006 81 250 0.0 2.0 0.00 0.00 0.00 77 1007.0
20260506001004 81 178 1.0 6.0 0.00 0.00 0.00 77 1006.3
20260506000508 81 207 0.0 5.0 0.00 0.00 0.00 77 1007.0
20260506000023 81 200 1.0 5.0 0.00 0.00 0.00 76 1006.9
20260506000021 81 160 3.0 6.0 0.00 0.00 0.00 76 1006.2
20260505235511 81 163 0.0 4.0 0.00 0.00 0.00 76 1007.0
20260505235502 81 171 2.0 5.0 0.00 0.00 0.00 76 1006.2
20260505235007 81 175 0.0 4.0 0.00 0.00 0.00 76 1006.9
20260505235003 81 141 2.0 5.0 0.00 0.00 0.00 76 1006.2
20260505234524 81 184 0.0 2.0 0.00 0.00 0.00 77 1006.9
20260505234522 81 166 1.0 5.0 0.00 0.00 0.00 77 1006.2
20260505234012 81 173 2.0 5.0 0.00 0.00 0.00 75 1006.2
20260505234006 81 192 0.0 4.0 0.00 0.00 0.00 75 1006.9
20260505233513 82 173 0.0 5.0 0.00 0.00 0.00 75 1006.9
20260505233504 82 145 2.0 9.0 0.00 0.00 0.00 75 1006.1
20260505233014 82 186 0.0 4.0 0.00 0.00 0.00 74 1006.9
20260505233005 82 190 3.0 9.0 0.00 0.00 0.00 74 1006.2
20260505232507 82 182 0.0 2.0 0.00 0.00 0.00 74 1006.9
20260505232505 82 162 2.0 9.0 0.00 0.00 0.00 74 1006.2
20260505232007 82 182 1.0 4.0 0.00 0.00 0.00 74 1006.8
20260505232003 82 171 1.0 9.0 0.00 0.00 0.00 74 1006.1
20260505231527 82 173 0.0 4.0 0.00 0.00 0.00 74 1006.8
20260505231512 82 150 2.0 8.0 0.00 0.00 0.00 74 1006.0
20260505231007 82 183 1.0 3.0 0.00 0.00 0.00 73 1006.8
20260505231004 82 166 2.0 8.0 0.00 0.00 0.00 73 1006.0
20260505230509 82 89 0.0 3.0 0.00 0.00 0.00 74 1006.8
20260505230506 82 168 3.0 8.0 0.00 0.00 0.00 74 1006.0
20260505230018 82 165 0.0 3.0 0.00 0.00 0.00 73 1006.8
20260505230009 82 150 2.0 8.0 0.00 0.00 0.00 73 1006.0
20260505225510 83 171 3.0 9.0 0.00 0.00 0.00 73 1006.0
20260505225506 83 171 1.0 4.0 0.00 0.00 0.00 73 1006.7
20260505225009 82 147 4.0 9.0 0.00 0.00 0.00 73 1006.1
20260505225007 82 210 0.0 5.0 0.00 0.00 0.00 73 1006.8
20260505224534 82 208 1.0 5.0 0.00 0.00 0.00 72 1006.9
20260505224508 82 132 5.0 10.0 0.00 0.00 0.00 72 1006.1
20260505224007 83 182 2.0 8.0 0.00 0.00 0.00 71 1006.9
20260505223514 83 197 1.0 8.0 0.00 0.00 0.00 72 1007.0
20260505223509 83 186 5.0 10.0 0.00 0.00 0.00 72 1006.2
20260505223038 83 220 1.0 6.0 0.00 0.00 0.00 71 1006.9
20260505223025 83 178 6.0 11.0 0.00 0.00 0.00 71 1006.2
20260505222507 84 163 1.0 6.0 0.00 0.00 0.00 70 1006.9
20260505222505 84 190 5.0 11.0 0.00 0.00 0.00 70 1006.1
20260505222009 84 216 1.0 6.0 0.00 0.00 0.00 71 1006.9
20260505222007 84 212 6.0 11.0 0.00 0.00 0.00 71 1006.1
20260505221524 83 206 1.0 6.0 0.00 0.00 0.00 72 1007.0
20260505221510 83 177 5.0 11.0 0.00 0.00 0.00 72 1006.3
20260505221012 83 198 1.0 6.0 0.00 0.00 0.00 73 1007.0
20260505221004 83 191 7.0 10.0 0.00 0.00 0.00 73 1006.3
20260505220509 82 179 1.0 3.0 0.00 0.00 0.00 74 1007.2
20260505220505 82 207 4.0 10.0 0.00 0.00 0.00 74 1006.5
20260505220033 82 227 1.0 8.0 0.00 0.00 0.00 73 1007.2
20260505220027 82 155 5.0 16.0 0.00 0.00 0.00 73 1006.5
20260505215512 82 207 1.0 8.0 0.00 0.00 0.00 73 1007.2
20260505215510 82 186 7.0 16.0 0.00 0.00 0.00 73 1006.5
20260505215009 83 246 1.0 8.0 0.00 0.00 0.00 72 1007.3
20260505215004 83 206 5.0 12.0 0.00 0.00 0.00 72 1006.6
20260505214525 83 195 7.0 12.0 0.00 0.00 0.00 71 1006.6
20260505214521 83 238 1.0 11.0 0.00 0.00 0.00 71 1007.3
20260505214010 83 120 4.0 11.0 0.00 0.00 0.00 71 1006.5
20260505214008 83 171 2.0 11.0 0.00 0.00 0.00 71 1007.2
20260505213512 83 162 2.0 5.0 0.00 0.00 0.00 71 1007.2
20260505213507 83 176 6.0 12.0 0.00 0.00 0.00 71 1006.6
20260505213038 84 248 1.0 5.0 0.00 0.00 0.00 72 1007.3
20260505213019 84 147 5.0 12.0 0.00 0.00 0.00 72 1006.6
20260505212509 83 162 7.0 14.0 0.00 0.00 0.00 71 1006.7
20260505212504 83 194 1.0 7.0 0.00 0.00 0.00 71 1007.3
20260505212014 83 170 9.0 14.0 0.00 0.00 0.00 70 1006.8
20260505212004 83 132 3.0 7.0 0.00 0.00 0.00 70 1007.5
20260505211510 83 148 4.0 14.0 0.00 0.00 0.00 72 1006.8
20260505211506 83 254 1.0 8.0 0.00 0.00 0.00 72 1007.4
20260505211007 84 132 1.0 7.0 0.00 0.00 0.00 72 1007.4
20260505211005 84 165 6.0 14.0 0.00 0.00 0.00 72 1006.8
20260505210505 83 180 2.0 7.0 0.00 0.00 0.00 73 1007.5
20260505210012 82 185 6.0 12.0 0.00 0.00 0.00 73 1007.0
20260505210010 82 194 1.0 4.0 0.00 0.00 0.00 73 1007.7
20260505205513 82 217 7.0 12.0 0.00 0.00 0.00 74 1007.1
20260505205509 82 97 1.0 4.0 0.00 0.00 0.00 74 1007.9
20260505205014 82 154 1.0 8.0 0.00 0.00 0.00 74 1008.0
20260505205007 82 232 6.0 12.0 0.00 0.00 0.00 74 1007.3
20260505204523 81 217 7.0 17.0 0.00 0.00 0.00 72 1007.5
20260505204510 81 156 2.0 8.0 0.00 0.00 0.00 72 1008.1
20260505204004 82 174 1.0 6.0 0.00 0.00 0.00 73 1008.1
20260505204002 82 120 4.0 17.0 0.00 0.00 0.00 73 1007.5
20260505203506 82 65 3.0 15.0 0.00 0.00 0.00 76 1007.6
20260505203024 82 166 8.0 15.0 0.00 0.00 0.00 74 1007.6
20260505203004 82 202 2.0 7.0 0.00 0.00 0.00 74 1008.3
20260505202508 82 188 4.0 15.0 0.00 0.00 0.00 74 1007.7
20260505202503 82 162 1.0 7.0 0.00 0.00 0.00 74 1008.3
20260505202008 81 202 6.0 11.0 0.00 0.00 0.00 75 1007.7
20260505202003 81 199 1.0 6.0 0.00 0.00 0.00 75 1008.4
20260505201522 81 170 4.0 11.0 0.00 0.00 0.00 74 1007.7
20260505201508 81 142 2.0 4.0 0.00 0.00 0.00 74 1008.4
20260505201009 81 171 4.0 11.0 0.00 0.00 0.00 74 1007.8
20260505201004 81 263 1.0 5.0 0.00 0.00 0.00 74 1008.5
20260505200510 81 163 2.0 5.0 0.00 0.00 0.00 75 1008.5
20260505200507 81 160 5.0 11.0 0.00 0.00 0.00 75 1007.8
20260505200012 81 192 1.0 5.0 0.00 0.00 0.00 76 1008.6
20260505195503 81 163 1.0 8.0 0.00 0.00 0.00 75 1008.7
20260505195007 82 193 8.0 12.0 0.00 0.00 0.00 73 1008.0
20260505195003 82 171 1.0 8.0 0.00 0.00 0.00 73 1008.8
20260505194520 82 166 4.0 20.0 0.00 0.00 0.00 76 1008.1
20260505194516 82 133 1.0 5.0 0.00 0.00 0.00 76 1008.9
20260505194014 82 135 2.0 9.0 0.00 0.00 0.00 74 1009.0
20260505194011 82 142 6.0 20.0 0.00 0.00 0.00 74 1008.2
20260505193508 81 189 5.0 15.0 0.00 0.00 0.00 78 1008.3
20260505193503 81 193 1.0 9.0 0.00 0.00 0.00 78 1009.1
20260505193034 81 169 1.0 9.0 0.00 0.00 0.00 76 1009.1
20260505193011 81 143 6.0 15.0 0.00 0.00 0.00 76 1008.3
20260505192506 82 227 9.0 16.0 0.00 0.00 0.00 74 1008.3
20260505192011 82 219 10.0 16.0 0.00 0.00 0.00 75 1008.4
20260505192003 82 242 2.0 8.0 0.00 0.00 0.00 75 1009.2
20260505191526 81 162 7.0 14.0 0.00 0.00 0.00 74 1008.5
20260505191507 81 201 2.0 5.0 0.00 0.00 0.00 74 1009.2
20260505191006 81 197 7.0 16.0 0.00 0.00 0.00 77 1008.5
20260505191003 81 248 1.0 10.0 0.00 0.00 0.00 77 1009.2
20260505190514 80 221 7.0 16.0 0.00 0.00 0.00 77 1008.5
20260505190502 80 196 1.0 10.0 0.00 0.00 0.00 77 1009.2
20260505190029 80 97 6.0 12.0 0.00 0.00 0.00 78 1008.5
20260505190016 80 145 1.0 3.0 0.00 0.00 0.00 78 1009.2
20260505185506 80 180 1.0 7.0 0.00 0.00 0.00 77 1009.2
20260505185007 80 161 7.0 11.0 0.00 0.00 0.00 77 1008.7
20260505185004 80 169 2.0 7.0 0.00 0.00 0.00 77 1009.3
20260505184514 80 183 6.0 11.0 0.00 0.00 0.00 80 1008.7
20260505184504 80 245 1.0 6.0 0.00 0.00 0.00 80 1009.4
20260505184006 79 153 6.0 12.0 0.00 0.00 0.00 81 1008.8
20260505184004 79 186 2.0 10.0 0.00 0.00 0.00 81 1009.4
20260505183507 78 172 6.0 13.0 0.00 0.00 0.00 80 1008.8
20260505183503 78 198 1.0 10.0 0.00 0.00 0.00 80 1009.4
20260505183031 78 228 6.0 13.0 0.00 0.00 0.00 81 1008.9
20260505183027 78 232 1.0 4.0 0.00 0.00 0.00 81 1009.4
20260505182506 78 165 7.0 11.0 0.00 0.00 0.00 82 1009.1
20260505182504 78 207 1.0 9.0 0.00 0.00 0.00 82 1009.6
20260505182012 77 175 7.0 12.0 0.00 0.00 0.00 80 1009.1
20260505182007 77 212 2.0 9.0 0.00 0.00 0.00 80 1009.6
20260505181521 77 194 1.0 8.0 0.00 0.00 0.00 81 1009.7
20260505181519 77 165 7.0 13.0 0.00 0.00 0.00 81 1009.2
20260505181012 77 188 7.0 13.0 0.00 0.00 0.00 82 1009.2
20260505181009 77 208 3.0 8.0 0.00 0.00 0.00 82 1009.8
20260505180514 77 192 7.0 11.0 0.00 0.00 0.00 81 1009.2
20260505180504 77 205 3.0 5.0 0.00 0.00 0.00 81 1009.8
20260505180008 77 213 6.0 12.0 0.00 0.00 0.00 81 1009.2
20260505175503 77 210 1.0 6.0 0.00 0.00 0.00 83 1009.7
20260505175003 76 172 2.0 5.0 0.00 0.00 0.00 82 1009.8
20260505174513 76 193 8.0 12.0 0.00 0.00 0.00 82 1009.3
20260505174511 76 224 1.0 8.0 0.00 0.00 0.00 82 1009.9
20260505174007 76 190 1.0 8.0 0.00 0.00 0.00 82 1010.0
20260505173503 76 219 7.0 12.0 0.00 0.00 0.00 82 1009.4
20260505173009 77 177 0.0 6.0 0.00 0.00 0.00 82 1009.9
20260505173007 77 158 5.0 12.0 0.00 0.00 0.00 82 1009.4
20260505172509 77 204 6.0 12.0 0.00 0.00 0.00 81 1009.4
20260505172507 77 236 1.0 7.0 0.00 0.00 0.00 81 1009.9
20260505172020 77 237 2.0 8.0 0.00 0.00 0.00 82 1009.9
20260505172003 77 188 8.0 13.0 0.00 0.00 0.00 82 1009.4
20260505171521 76 254 1.0 8.0 0.00 0.00 0.00 84 1009.9
20260505171503 76 163 8.0 13.0 0.00 0.00 0.00 84 1009.4
20260505171005 76 213 1.0 7.0 0.00 0.00 0.00 83 1009.9
20260505171003 76 184 9.0 13.0 0.00 0.00 0.00 83 1009.3
20260505170514 76 241 2.0 7.0 0.00 0.00 0.00 82 1009.9
20260505170502 76 146 8.0 14.0 0.00 0.00 0.00 82 1009.3
20260505170011 76 233 2.0 11.0 0.00 0.00 0.00 83 1009.9
20260505170004 76 203 9.0 15.0 0.00 0.00 0.00 83 1009.4
20260505165503 76 178 8.0 15.0 0.00 0.00 0.00 84 1009.4
20260505165004 75 186 1.0 5.0 0.00 0.00 0.00 84 1009.9
20260505164523 75 158 1.0 6.0 0.00 0.00 0.00 84 1010.0
20260505164506 75 159 6.0 13.0 0.00 0.00 0.00 84 1009.3
20260505164004 75 211 7.0 15.0 0.00 0.00 0.00 84 1009.3
20260505163504 75 177 7.0 15.0 0.00 0.00 0.00 85 1009.4
20260505163018 75 238 2.0 9.0 0.00 0.00 0.00 85 1010.1
20260505163015 75 196 9.0 15.0 0.00 0.00 0.00 85 1009.4
20260505162505 74 163 2.0 6.0 0.00 0.00 0.00 85 1010.1
20260505162503 74 156 7.0 16.0 0.00 0.00 0.00 85 1009.5
20260505162007 74 198 9.0 16.0 0.00 0.00 0.00 85 1009.6
20260505161518 74 173 2.0 8.0 0.00 0.00 0.00 86 1010.3
20260505161008 74 194 2.0 11.0 0.00 0.00 0.00 87 1010.3
20260505161004 74 163 7.0 12.0 0.00 0.00 0.00 87 1009.6
20260505160504 73 238 3.0 11.0 0.00 0.00 0.00 87 1010.4
20260505160502 73 217 8.0 17.0 0.00 0.00 0.00 87 1009.7
20260505153008 73 198 7.0 12.0 0.00 0.00 0.00 88 1009.3
20260505153006 73 221 1.0 7.0 0.00 0.00 0.00 88 1010.1
20260505152507 73 199 8.0 12.0 0.00 0.00 0.00 89 1009.2
20260505152504 73 191 1.0 6.0 0.00 0.00 0.00 89 1009.9
20260505152015 72 213 1.0 7.0 0.00 0.00 0.00 89 1010.0
20260505152006 72 203 6.0 13.0 0.00 0.00 0.00 89 1009.3
20260505151518 72 260 0.0 7.0 0.00 0.00 0.00 89 1010.1
20260505151503 72 235 6.0 13.0 0.00 0.00 0.00 89 1009.3
20260505151003 72 182 7.0 12.0 0.00 0.00 0.00 89 1009.3
20260505150513 72 214 1.0 8.0 0.00 0.00 0.00 89 1010.0
20260505150506 72 192 7.0 13.0 0.00 0.00 0.00 89 1009.3
20260505140512 71 232 2.0 8.0 0.00 0.00 0.00 88 1009.6
20260505140502 71 200 6.0 14.0 0.00 0.00 0.00 88 1008.9
20260505125006 70 205 1.0 4.0 0.00 0.00 0.00 89 1009.1
20260505125004 70 177 6.0 12.0 0.00 0.00 0.00 89 1008.4
20260505124530 70 202 5.0 11.0 0.00 0.00 0.00 88 1008.4
20260505124520 70 193 1.0 4.0 0.00 0.00 0.00 88 1009.2
20260505124011 70 209 1.0 10.0 0.00 0.00 0.00 88 1009.1
20260505124009 70 173 5.0 11.0 0.00 0.00 0.00 88 1008.3
20260505123504 70 178 1.0 10.0 0.00 0.00 0.00 88 1009.0
20260505123502 70 195 6.0 13.0 0.00 0.00 0.00 88 1008.1
20260505123019 70 196 2.0 4.0 0.00 0.00 0.00 88 1009.0
20260505123011 70 234 8.0 13.0 0.00 0.00 0.00 88 1008.2
20260505122504 70 158 5.0 13.0 0.00 0.00 0.00 88 1008.1
20260505122004 70 192 1.0 5.0 0.00 0.00 0.00 88 1008.9
20260505122002 70 221 8.0 13.0 0.00 0.00 0.00 88 1008.1
20260505121512 70 158 7.0 11.0 0.00 0.00 0.00 88 1008.0
20260505121004 70 173 1.0 5.0 0.00 0.00 0.00 88 1008.7
20260505120508 70 195 2.0 4.0 0.00 0.00 0.00 88 1008.7
20260505120504 70 245 5.0 10.0 0.00 0.00 0.00 88 1007.9
20260505120008 70 163 1.0 5.0 0.00 0.00 0.00 87 1008.7
20260505115509 70 158 1.0 5.0 0.00 0.00 0.00 87 1008.5
20260505115506 70 175 6.0 12.0 0.00 0.00 0.00 87 1007.7
20260505115007 70 200 1.0 5.0 0.00 0.00 0.00 87 1008.7
20260505114525 70 220 2.0 5.0 0.00 0.00 0.00 87 1008.7
20260505114522 70 176 7.0 14.0 0.00 0.00 0.00 87 1007.9
20260505114007 70 180 5.0 12.0 0.00 0.00 0.00 87 1007.9
20260505114004 70 238 1.0 4.0 0.00 0.00 0.00 87 1008.6
20260505113509 70 194 1.0 6.0 0.00 0.00 0.00 87 1008.6
20260505113507 70 128 5.0 14.0 0.00 0.00 0.00 87 1007.8
20260505113023 70 167 8.0 14.0 0.00 0.00 0.00 87 1007.8
20260505112504 70 222 2.0 11.0 0.00 0.00 0.00 87 1008.7
20260505112502 70 219 7.0 13.0 0.00 0.00 0.00 87 1008.1
20260505112007 70 242 2.0 8.0 0.00 0.00 0.00 87 1008.7
20260505112003 70 219 6.0 16.0 0.00 0.00 0.00 87 1008.0
20260505111516 70 128 2.0 8.0 0.00 0.00 0.00 87 1008.5
20260505111512 70 191 7.0 16.0 0.00 0.00 0.00 87 1007.9
20260505111006 70 257 7.0 12.0 0.00 0.00 0.00 87 1008.1
20260505110506 70 178 5.0 15.0 0.00 0.00 0.00 87 1008.0
20260505102009 69 167 6.0 12.0 0.00 0.00 0.00 88 1008.3
20260505102007 69 205 2.0 6.0 0.00 0.00 0.00 88 1008.9
20260505101526 69 186 1.0 6.0 0.00 0.00 0.00 88 1008.8
20260505101508 69 185 5.0 11.0 0.00 0.00 0.00 88 1008.1
20260505101006 69 186 1.0 3.0 0.00 0.00 0.00 87 1008.6
20260505101003 69 162 4.0 11.0 0.00 0.00 0.00 87 1007.9
20260505100508 69 173 1.0 5.0 0.00 0.00 0.00 88 1008.6
20260505100504 69 165 6.0 15.0 0.00 0.00 0.00 88 1007.9
20260505100016 69 197 1.0 6.0 0.00 0.00 0.00 88 1008.7
20260505100014 69 178 6.0 15.0 0.00 0.00 0.00 88 1008.1
20260505095506 69 178 7.0 12.0 0.00 0.00 0.00 88 1008.2
20260505095504 69 154 2.0 6.0 0.00 0.00 0.00 88 1008.9
20260505095010 69 217 1.0 5.0 0.00 0.00 0.00 88 1008.9
20260505095006 69 178 6.0 12.0 0.00 0.00 0.00 88 1008.1
20260505094518 69 226 7.0 12.0 0.00 0.00 0.00 88 1008.2
20260505094516 69 172 1.0 5.0 0.00 0.00 0.00 88 1008.8
20260505094006 69 205 1.0 5.0 0.00 0.00 0.00 88 1008.8
20260505093507 69 153 4.0 10.0 0.00 0.00 0.00 88 1008.0
20260505093023 69 196 5.0 10.0 0.00 0.00 0.00 88 1008.2
20260505092510 69 250 1.0 5.0 0.00 0.00 0.00 88 1009.0
20260505092508 69 169 6.0 10.0 0.00 0.00 0.00 88 1008.3
20260505092007 69 192 6.0 11.0 0.00 0.00 0.00 88 1008.3
20260505092004 69 229 1.0 4.0 0.00 0.00 0.00 88 1009.0
20260505091519 69 226 6.0 11.0 0.00 0.00 0.00 87 1008.3
20260505091506 69 185 1.0 6.0 0.00 0.00 0.00 87 1009.0
20260505091008 69 136 6.0 17.0 0.00 0.00 0.00 87 1008.3
20260505091006 69 117 2.0 6.0 0.00 0.00 0.00 87 1009.0
20260505090504 69 229 0.0 4.0 0.00 0.00 0.00 87 1008.8
20260505090018 69 196 6.0 14.0 0.00 0.00 0.00 87 1008.2
20260505090012 69 168 1.0 5.0 0.00 0.00 0.00 87 1008.9
20260505085504 69 207 6.0 14.0 0.00 0.00 0.00 87 1008.2
20260505085007 69 190 6.0 11.0 0.00 0.00 0.00 87 1008.4
20260505085004 69 203 2.0 7.0 0.00 0.00 0.00 87 1009.1
20260505084534 69 195 4.0 11.0 0.00 0.00 0.00 87 1008.5
20260505084517 69 190 1.0 5.0 0.00 0.00 0.00 87 1009.1
20260505084012 69 207 1.0 5.0 0.00 0.00 0.00 87 1009.2
20260505084007 69 202 6.0 12.0 0.00 0.00 0.00 87 1008.6
20260505083507 69 166 6.0 12.0 0.00 0.00 0.00 87 1008.4
20260505083505 69 178 2.0 5.0 0.00 0.00 0.00 87 1009.1
20260505083020 69 147 3.0 9.0 0.00 0.00 0.00 87 1008.5
20260505083012 69 197 1.0 4.0 0.00 0.00 0.00 87 1009.1
20260505082507 69 172 5.0 10.0 0.00 0.00 0.00 87 1008.6
20260505082007 69 206 1.0 6.0 0.00 0.00 0.00 87 1009.3
20260505081528 69 192 5.0 10.0 0.00 0.00 0.00 87 1008.7
20260505081508 69 240 1.0 4.0 0.00 0.00 0.00 87 1009.3
20260505081005 69 201 1.0 4.0 0.00 0.00 0.00 86 1009.3
20260505080506 69 180 5.0 11.0 0.00 0.00 0.00 86 1008.9
20260505080504 69 175 1.0 7.0 0.00 0.00 0.00 86 1009.5
20260505080026 70 192 6.0 14.0 0.00 0.00 0.00 86 1009.0
20260505080008 70 186 1.0 7.0 0.00 0.00 0.00 86 1009.6
20260505075509 70 152 6.0 15.0 0.00 0.00 0.00 86 1009.0
20260505075506 70 202 2.0 6.0 0.00 0.00 0.00 86 1009.6
20260505075007 70 156 8.0 15.0 0.00 0.00 0.00 86 1009.0
20260505075002 70 163 1.0 6.0 0.00 0.00 0.00 86 1009.6
20260505074516 70 198 1.0 5.0 0.00 0.00 0.00 86 1009.7
20260505074514 70 242 4.0 16.0 0.00 0.00 0.00 86 1009.0
20260505074005 70 198 2.0 5.0 0.00 0.00 0.00 86 1009.8
20260505073506 70 209 7.0 15.0 0.00 0.00 0.00 86 1009.2
20260505073504 70 191 2.0 4.0 0.00 0.00 0.00 86 1009.8
20260505073021 70 230 6.0 12.0 0.00 0.00 0.00 86 1009.2
20260505073019 70 189 1.0 3.0 0.00 0.00 0.00 86 1009.8
20260505072509 70 200 6.0 11.0 0.00 0.00 0.00 86 1009.3
20260505072507 70 223 1.0 3.0 0.00 0.00 0.00 86 1009.9
20260505072012 69 166 5.0 11.0 0.00 0.00 0.00 86 1009.4
20260505072003 69 232 1.0 4.0 0.00 0.00 0.00 86 1010.0
20260505071520 69 234 1.0 5.0 0.00 0.00 0.00 86 1010.0
20260505071007 69 182 2.0 5.0 0.00 0.00 0.00 86 1010.0
20260505070509 69 157 5.0 16.0 0.00 0.00 0.00 86 1009.5
20260505070503 69 186 1.0 6.0 0.00 0.00 0.00 86 1010.1
20260505070016 69 200 7.0 16.0 0.00 0.00 0.00 86 1009.5
20260505070013 69 207 1.0 6.0 0.00 0.00 0.00 86 1010.2
20260505065514 69 170 7.0 14.0 0.00 0.00 0.00 86 1009.4
20260505065503 69 226 1.0 7.0 0.00 0.00 0.00 86 1010.1
20260505065012 69 140 4.0 11.0 0.00 0.00 0.00 86 1009.6
20260505065002 69 186 1.0 7.0 0.00 0.00 0.00 86 1010.3
20260505064528 69 158 6.0 11.0 0.00 0.00 0.00 86 1009.7
20260505064511 69 178 1.0 5.0 0.00 0.00 0.00 86 1010.4
20260505064015 69 150 6.0 10.0 0.00 0.00 0.00 86 1009.7
20260505064006 69 198 1.0 3.0 0.00 0.00 0.00 86 1010.4
20260505063506 69 71 1.0 6.0 0.00 0.00 0.00 86 1010.5
20260505063504 69 151 5.0 12.0 0.00 0.00 0.00 86 1009.8
20260505063020 69 186 7.0 12.0 0.00 0.00 0.00 86 1009.9
20260505063008 69 215 2.0 6.0 0.00 0.00 0.00 86 1010.5
20260505062508 69 190 6.0 16.0 0.00 0.00 0.00 85 1010.0
20260505062012 69 224 1.0 16.0 0.00 0.00 0.00 86 1010.7
20260505062008 69 183 7.0 16.0 0.00 0.00 0.00 86 1010.0
20260505061525 69 228 6.0 14.0 0.00 0.00 0.00 86 1010.0
20260505061520 69 241 1.0 4.0 0.00 0.00 0.00 86 1010.7
20260505061009 69 194 5.0 14.0 0.00 0.00 0.00 86 1010.0
20260505061003 69 200 1.0 8.0 0.00 0.00 0.00 86 1010.6
20260505060509 69 165 1.0 8.0 0.00 0.00 0.00 86 1010.5
20260505060028 69 172 1.0 4.0 0.00 0.00 0.00 86 1010.6
20260505060004 69 161 4.0 12.0 0.00 0.00 0.00 86 1009.9
20260505055503 69 207 5.0 15.0 0.00 0.00 0.00 86 1009.8
20260505055004 69 152 2.0 7.0 0.00 0.00 0.00 86 1010.4
20260505055002 69 175 7.0 15.0 0.00 0.00 0.00 86 1009.8
20260505054511 69 169 2.0 7.0 0.00 0.00 0.00 86 1010.3
20260505054505 69 181 7.0 13.0 0.00 0.00 0.00 86 1009.7
20260505054003 69 195 1.0 5.0 0.00 0.00 0.00 86 1010.3
20260505053503 69 190 1.0 8.0 0.00 0.00 0.00 85 1010.3
20260505053018 69 219 1.0 8.0 0.00 0.00 0.00 85 1010.6
20260505053012 69 161 6.0 15.0 0.00 0.00 0.00 85 1009.8
20260505052510 69 151 2.0 5.0 0.00 0.00 0.00 85 1010.3
20260505052503 69 166 5.0 13.0 0.00 0.00 0.00 85 1009.7
20260505052006 69 186 7.0 14.0 0.00 0.00 0.00 85 1009.6
20260505052003 69 148 1.0 5.0 0.00 0.00 0.00 85 1010.2
20260505051521 69 164 1.0 6.0 0.00 0.00 0.00 85 1010.5
20260505051518 69 173 7.0 14.0 0.00 0.00 0.00 85 1009.8
20260505051006 69 174 2.0 6.0 0.00 0.00 0.00 84 1010.6
20260505050511 69 203 2.0 6.0 0.00 0.00 0.00 84 1010.4
20260505050506 69 177 4.0 15.0 0.00 0.00 0.00 84 1009.7
20260505041531 70 154 2.0 9.0 0.00 0.00 0.00 82 1010.8
20260505041504 70 136 6.0 14.0 0.00 0.00 0.00 82 1010.1
20260505041004 71 177 1.0 7.0 0.00 0.00 0.00 82 1010.8
20260505040512 71 148 1.0 7.0 0.00 0.00 0.00 81 1010.7
20260505040508 71 94 6.0 19.0 0.00 0.00 0.00 81 1010.0
20260505040024 71 85 1.0 7.0 0.00 0.00 0.00 81 1010.7
20260505040016 71 174 4.0 19.0 0.00 0.00 0.00 81 1010.0
20260505035509 71 188 2.0 5.0 0.00 0.00 0.00 81 1010.7
20260505035506 71 177 4.0 12.0 0.00 0.00 0.00 81 1010.0
20260505035003 71 198 4.0 14.0 0.00 0.00 0.00 81 1010.1
20260505034523 71 171 2.0 6.0 0.00 0.00 0.00 81 1010.6
20260505034508 71 154 4.0 14.0 0.00 0.00 0.00 81 1010.0
20260505034015 71 217 1.0 6.0 0.00 0.00 0.00 81 1010.7
20260505034003 71 153 5.0 12.0 0.00 0.00 0.00 81 1010.0
20260505033511 71 192 1.0 6.0 0.00 0.00 0.00 80 1010.6
20260505033505 71 176 4.0 10.0 0.00 0.00 0.00 80 1009.9
20260505033019 72 242 2.0 6.0 0.00 0.00 0.00 80 1010.6
20260505033011 72 178 5.0 10.0 0.00 0.00 0.00 80 1010.0
20260505032504 72 200 1.0 7.0 0.00 0.00 0.00 80 1010.6
20260505032502 72 169 5.0 10.0 0.00 0.00 0.00 80 1010.0
20260505032005 72 196 1.0 7.0 0.00 0.00 0.00 80 1010.7
20260505032003 72 161 4.0 10.0 0.00 0.00 0.00 80 1010.0
20260505031517 72 185 1.0 5.0 0.00 0.00 0.00 80 1010.8
20260505031010 72 183 1.0 5.0 0.00 0.00 0.00 79 1010.9
20260505031007 72 152 3.0 9.0 0.00 0.00 0.00 79 1010.2
20260505030509 72 193 1.0 3.0 0.00 0.00 0.00 79 1010.8
20260505030503 72 141 3.0 9.0 0.00 0.00 0.00 79 1010.1
20260505030024 72 109 0.0 3.0 0.00 0.00 0.00 79 1010.8
20260505030008 72 177 4.0 9.0 0.00 0.00 0.00 79 1010.1
20260505025507 72 159 3.0 9.0 0.00 0.00 0.00 79 1010.0
20260505025007 72 174 1.0 5.0 0.00 0.00 0.00 79 1010.7
20260505024526 72 193 2.0 5.0 0.00 0.00 0.00 78 1010.7
20260505024510 72 163 4.0 8.0 0.00 0.00 0.00 78 1009.9
20260505024007 72 153 1.0 4.0 0.00 0.00 0.00 79 1010.6
20260505024002 72 171 3.0 9.0 0.00 0.00 0.00 79 1009.9
20260505023507 72 168 0.0 4.0 0.00 0.00 0.00 78 1010.6
20260505023501 72 144 3.0 8.0 0.00 0.00 0.00 78 1009.9
20260505023032 73 150 1.0 2.0 0.00 0.00 0.00 78 1010.5
20260505023005 73 162 3.0 9.0 0.00 0.00 0.00 78 1009.8
20260505022508 73 171 0.0 5.0 0.00 0.00 0.00 78 1010.6
20260505022502 73 140 2.0 9.0 0.00 0.00 0.00 78 1009.8
20260505022009 73 178 0.0 5.0 0.00 0.00 0.00 77 1010.6
20260505022004 73 161 3.0 8.0 0.00 0.00 0.00 77 1009.8
20260505021516 73 186 4.0 8.0 0.00 0.00 0.00 77 1009.8
20260505021512 73 190 1.0 4.0 0.00 0.00 0.00 77 1010.6
20260505021003 73 181 1.0 4.0 0.00 0.00 0.00 77 1010.5
20260505020507 73 155 3.0 7.0 0.00 0.00 0.00 77 1009.8
20260505020503 73 212 1.0 6.0 0.00 0.00 0.00 77 1010.4
20260505020019 73 167 0.0 6.0 0.00 0.00 0.00 76 1010.1
20260505020017 73 190 3.0 8.0 0.00 0.00 0.00 76 1009.8
20260505015512 73 132 0.0 5.0 0.00 0.00 0.00 76 1010.1
20260505015508 73 144 4.0 7.0 0.00 0.00 0.00 76 1009.7
20260505015007 74 202 1.0 6.0 0.00 0.00 0.00 76 1010.1
20260505014518 74 254 1.0 6.0 0.00 0.00 0.00 75 1010.2
20260505014516 74 159 4.0 9.0 0.00 0.00 0.00 75 1009.8
20260505014007 74 198 0.0 5.0 0.00 0.00 0.00 75 1010.2
20260505013507 74 194 0.0 2.0 0.00 0.00 0.00 75 1010.2
20260505013502 74 150 2.0 7.0 0.00 0.00 0.00 75 1009.8
20260505013016 74 195 0.0 3.0 0.00 0.00 0.00 74 1010.1
20260505013008 74 119 3.0 8.0 0.00 0.00 0.00 74 1009.7
20260505012514 74 194 0.0 4.0 0.00 0.00 0.00 74 1010.1
20260505012502 74 163 3.0 8.0 0.00 0.00 0.00 74 1009.6
20260505012010 74 178 1.0 4.0 0.00 0.00 0.00 73 1010.0
20260505012003 74 159 4.0 8.0 0.00 0.00 0.00 73 1009.4
20260505011531 75 196 1.0 4.0 0.00 0.00 0.00 73 1009.9
20260505011525 75 169 2.0 8.0 0.00 0.00 0.00 73 1009.4
20260505011004 75 165 3.0 8.0 0.00 0.00 0.00 72 1009.5
20260505011002 75 190 1.0 2.0 0.00 0.00 0.00 72 1009.9
20260505010504 75 169 0.0 8.0 0.00 0.00 0.00 71 1010.0
20260505010016 75 166 1.0 6.0 0.00 0.00 0.00 71 1010.1
20260505010014 75 140 4.0 12.0 0.00 0.00 0.00 71 1009.6
20260505005504 75 156 3.0 9.0 0.00 0.00 0.00 71 1009.5
20260505005007 76 142 3.0 13.0 0.00 0.00 0.00 71 1009.4
20260505004532 76 193 1.0 6.0 0.00 0.00 0.00 70 1009.8
20260505004520 76 161 4.0 13.0 0.00 0.00 0.00 70 1009.3
20260505004007 76 256 1.0 6.0 0.00 0.00 0.00 69 1009.8
20260505004003 76 154 4.0 9.0 0.00 0.00 0.00 69 1009.2
20260505003509 77 159 3.0 15.0 0.00 0.00 0.00 69 1009.2
20260505003507 77 215 1.0 3.0 0.00 0.00 0.00 69 1009.7
20260505003023 77 178 1.0 3.0 0.00 0.00 0.00 68 1009.8
20260505003021 77 162 4.0 15.0 0.00 0.00 0.00 68 1009.2
20260505002510 77 167 1.0 3.0 0.00 0.00 0.00 68 1009.9
20260505002503 77 208 5.0 10.0 0.00 0.00 0.00 68 1009.3
20260505002007 77 172 1.0 6.0 0.00 0.00 0.00 67 1009.9
20260505002005 77 155 4.0 12.0 0.00 0.00 0.00 67 1009.4